ARG110 EPWA-UKKM

Flight info

Callsign ARG110
Flight time 0h 59m
Altitude 39000
Route XIMBA N195 OMAVA L980 USTIL/K0846F390 L980 DORER P142 LAPVA M70 SLV
Aircraft B738/M-SDE2E3FGHIRWXY/LB1

Departure

Time 2026-04-24 02:19
Airport Warsaw Chopin Airport (EPWA)

Arrival

Time 2026-04-24 03:18
Airport Hostomel Airport (UKKM)
Time Latitude Longitude Altitude Speed Heading
2026-04-24 01:39 52.15578 20.98126 359 ft 0 kts 58°
2026-04-24 02:12 52.15576 20.98121 359 ft 2 kts 58°
2026-04-24 02:12 52.15567 20.98099 364 ft 2 kts 58°
2026-04-24 02:13 52.15559 20.98076 362 ft 2 kts 58°
2026-04-24 02:13 52.15550 20.98054 365 ft 2 kts 58°
2026-04-24 02:13 52.15542 20.98032 365 ft 2 kts 57°
2026-04-24 02:13 52.15533 20.98009 361 ft 2 kts 57°
2026-04-24 02:14 52.15524 20.97987 368 ft 2 kts 53°
2026-04-24 02:14 52.15518 20.97979 365 ft 0 kts 347°
2026-04-24 02:17 52.15525 20.97976 367 ft 4 kts 348°
2026-04-24 02:17 52.15558 20.97958 360 ft 4 kts 310°
2026-04-24 02:17 52.15555 20.97888 361 ft 9 kts 245°
2026-04-24 02:18 52.15514 20.97770 366 ft 15 kts 239°
2026-04-24 02:18 52.15490 20.97689 364 ft 3 kts 281°
2026-04-24 02:18 52.15518 20.97637 364 ft 9 kts 322°
2026-04-24 02:18 52.15764 20.97410 363 ft 88 kts 331°
2026-04-24 02:19 52.16572 20.96706 478 ft 162 kts 332°
2026-04-24 02:19 52.17545 20.95900 1829 ft 146 kts 332°
2026-04-24 02:19 52.18424 20.95055 3028 ft 155 kts 331°
2026-04-24 02:19 52.19466 20.94138 3570 ft 183 kts 333°
2026-04-24 02:20 52.20667 20.93123 3976 ft 199 kts 333°
2026-04-24 02:20 52.21875 20.92015 4837 ft 200 kts 321°
2026-04-24 02:20 52.22649 20.90062 5485 ft 221 kts 289°
2026-04-24 02:20 52.22662 20.87313 5726 ft 266 kts 260°
2026-04-24 02:21 52.22073 20.84501 6932 ft 261 kts 256°
2026-04-24 02:21 52.21447 20.81714 7828 ft 267 kts 255°
2026-04-24 02:21 52.20785 20.78781 8479 ft 279 kts 257°
2026-04-24 02:21 52.20174 20.75797 9468 ft 279 kts 258°
2026-04-24 02:22 52.19570 20.72787 9855 ft 280 kts 258°
2026-04-24 02:22 52.18849 20.69822 9894 ft 287 kts 243°
2026-04-24 02:22 52.17448 20.67434 9926 ft 300 kts 221°
2026-04-24 02:22 52.15685 20.65568 9930 ft 304 kts 217°
2026-04-24 02:23 52.13874 20.63778 9932 ft 305 kts 216°
2026-04-24 02:23 52.12053 20.61986 9927 ft 306 kts 217°
2026-04-24 02:23 52.10236 20.60185 9921 ft 306 kts 217°
2026-04-24 02:23 52.08446 20.58395 9921 ft 305 kts 217°
2026-04-24 02:24 52.06645 20.56584 9921 ft 304 kts 217°
2026-04-24 02:24 52.04848 20.54772 9916 ft 303 kts 217°
2026-04-24 02:24 52.03063 20.52969 9916 ft 302 kts 217°
2026-04-24 02:24 52.01283 20.51171 9919 ft 301 kts 217°
2026-04-24 02:25 51.99504 20.49378 9926 ft 301 kts 217°
2026-04-24 02:25 51.97726 20.47603 9920 ft 301 kts 214°
2026-04-24 02:25 51.95731 20.46584 9923 ft 310 kts 187°
2026-04-24 02:25 51.93592 20.47086 9919 ft 316 kts 158°
2026-04-24 02:26 51.91791 20.49083 9941 ft 315 kts 134°
2026-04-24 02:26 51.90257 20.51634 9931 ft 318 kts 131°
2026-04-24 02:26 51.88732 20.54279 10236 ft 324 kts 131°
2026-04-24 02:26 51.87194 20.56944 11112 ft 324 kts 131°
2026-04-24 02:27 51.85645 20.59601 11970 ft 326 kts 131°
2026-04-24 02:27 51.84068 20.62285 12745 ft 331 kts 131°
2026-04-24 02:27 51.82464 20.64997 13520 ft 336 kts 131°
2026-04-24 02:27 51.80834 20.67741 14240 ft 341 kts 131°
2026-04-24 02:28 51.79204 20.70476 14958 ft 344 kts 131°
2026-04-24 02:28 51.77589 20.73326 15678 ft 344 kts 121°
2026-04-24 02:28 51.76618 20.76772 16394 ft 334 kts 98°
2026-04-24 02:28 51.76271 20.80427 17178 ft 327 kts 87°
2026-04-24 02:29 51.76120 20.84091 17948 ft 328 kts 85°
2026-04-24 02:29 51.75997 20.87776 18637 ft 330 kts 85°
2026-04-24 02:29 51.75869 20.91498 19265 ft 333 kts 85°
2026-04-24 02:29 51.75728 20.95246 19889 ft 336 kts 85°
2026-04-24 02:30 51.75575 20.99023 20527 ft 339 kts 85°
2026-04-24 02:30 51.75414 21.02838 21149 ft 342 kts 85°
2026-04-24 02:30 51.75247 21.06679 21768 ft 344 kts 85°
2026-04-24 02:30 51.75078 21.10540 22372 ft 347 kts 85°
2026-04-24 02:31 51.74821 21.14452 22952 ft 358 kts 95°
2026-04-24 02:31 51.73851 21.18272 23537 ft 375 kts 109°
2026-04-24 02:31 51.72602 21.21985 24060 ft 378 kts 111°
2026-04-24 02:31 51.71316 21.25707 24535 ft 381 kts 111°
2026-04-24 02:32 51.70029 21.29462 25011 ft 384 kts 110°
2026-04-24 02:32 51.68751 21.33262 25498 ft 386 kts 110°
2026-04-24 02:32 51.67479 21.37080 25983 ft 388 kts 110°
2026-04-24 02:32 51.66162 21.40908 26463 ft 395 kts 116°
2026-04-24 02:33 51.64247 21.44209 26901 ft 415 kts 137°
2026-04-24 02:33 51.61766 21.46786 27005 ft 433 kts 144°
2026-04-24 02:33 51.59146 21.49200 27102 ft 445 kts 146°
2026-04-24 02:33 51.56412 21.51675 27195 ft 457 kts 146°
2026-04-24 02:34 51.53627 21.54262 27264 ft 468 kts 145°
2026-04-24 02:34 51.50801 21.56951 27339 ft 478 kts 144°
2026-04-24 02:34 51.47919 21.59720 27401 ft 487 kts 144°
2026-04-24 02:34 51.44983 21.62533 27462 ft 496 kts 144°
2026-04-24 02:35 51.42040 21.65489 27522 ft 500 kts 138°
2026-04-24 02:35 51.39502 21.69245 27679 ft 494 kts 124°
2026-04-24 02:35 51.37508 21.73658 28021 ft 484 kts 113°
2026-04-24 02:35 51.36115 21.78473 28355 ft 473 kts 102°
2026-04-24 02:36 51.35066 21.83459 28647 ft 473 kts 101°
2026-04-24 02:36 51.34028 21.88473 28878 ft 476 kts 101°
2026-04-24 02:36 51.32978 21.93506 29145 ft 478 kts 101°
2026-04-24 02:36 51.31911 21.98536 29522 ft 477 kts 101°
2026-04-24 02:37 51.30831 22.03539 29987 ft 475 kts 101°
2026-04-24 02:37 51.29744 22.08516 30383 ft 473 kts 101°
2026-04-24 02:37 51.28657 22.13463 30685 ft 473 kts 101°
2026-04-24 02:37 51.27566 22.18416 30953 ft 473 kts 101°
2026-04-24 02:38 51.26471 22.23370 31252 ft 473 kts 101°
2026-04-24 02:38 51.25376 22.28307 31593 ft 471 kts 101°
2026-04-24 02:38 51.24279 22.33243 31910 ft 471 kts 101°
2026-04-24 02:38 51.23185 22.38161 32207 ft 471 kts 101°
2026-04-24 02:39 51.22086 22.43089 32507 ft 470 kts 101°
2026-04-24 02:39 51.20990 22.47995 32826 ft 470 kts 101°
2026-04-24 02:39 51.19891 22.52899 33144 ft 469 kts 101°
2026-04-24 02:39 51.18793 22.57793 33436 ft 469 kts 101°
2026-04-24 02:40 51.17694 22.62679 33741 ft 469 kts 101°
2026-04-24 02:40 51.16590 22.67572 34034 ft 468 kts 101°
2026-04-24 02:40 51.15488 22.72445 34293 ft 468 kts 101°
2026-04-24 02:40 51.14384 22.77320 34544 ft 468 kts 101°
2026-04-24 02:41 51.13292 22.82128 34760 ft 468 kts 101°
2026-04-24 02:41 51.12182 22.87007 35011 ft 468 kts 101°
2026-04-24 02:41 51.11073 22.91867 35262 ft 468 kts 101°
2026-04-24 02:41 51.09958 22.96739 35506 ft 468 kts 101°
2026-04-24 02:42 51.08844 23.01599 35735 ft 468 kts 101°
2026-04-24 02:42 51.07727 23.06463 35968 ft 468 kts 101°
2026-04-24 02:42 51.06607 23.11328 36228 ft 468 kts 101°
2026-04-24 02:42 51.05486 23.16184 36463 ft 468 kts 102°
2026-04-24 02:43 51.04364 23.21033 36686 ft 468 kts 102°
2026-04-24 02:43 51.03238 23.25887 36930 ft 468 kts 102°
2026-04-24 02:43 51.02478 23.29159 37077 ft 468 kts 102°
2026-04-24 02:43 51.01351 23.34007 37291 ft 468 kts 102°
2026-04-24 02:44 51.00219 23.38857 37508 ft 468 kts 102°
2026-04-24 02:44 50.99087 23.43700 37711 ft 468 kts 102°
2026-04-24 02:44 50.97951 23.48551 37915 ft 469 kts 102°
2026-04-24 02:44 50.96813 23.53395 38120 ft 469 kts 102°
2026-04-24 02:45 50.95304 23.59803 38409 ft 469 kts 102°
2026-04-24 02:45 50.94547 23.63012 38484 ft 470 kts 102°
2026-04-24 02:45 50.92235 23.72780 38484 ft 468 kts 103°
2026-04-24 02:46 50.89965 23.82319 38468 ft 465 kts 103°
2026-04-24 02:46 50.87685 23.91872 38466 ft 463 kts 103°
2026-04-24 02:47 50.85406 24.01392 38476 ft 462 kts 103°
2026-04-24 02:47 50.83217 24.10940 38465 ft 457 kts 96°
2026-04-24 02:48 50.82095 24.20690 38471 ft 450 kts 90°
2026-04-24 02:48 50.81131 24.30500 38468 ft 453 kts 90°
2026-04-24 02:49 50.80110 24.40359 38461 ft 456 kts 91°
2026-04-24 02:49 50.79042 24.50275 38457 ft 458 kts 91°
2026-04-24 02:50 50.77956 24.60222 38457 ft 460 kts 91°
2026-04-24 02:50 50.76860 24.70215 38461 ft 462 kts 91°
2026-04-24 02:51 50.75754 24.80224 38446 ft 464 kts 91°
2026-04-24 02:51 50.74638 24.90263 38441 ft 464 kts 91°
2026-04-24 02:52 50.73516 25.00300 38430 ft 464 kts 91°
2026-04-24 02:52 50.72389 25.10309 38434 ft 463 kts 91°
2026-04-24 02:53 50.71255 25.20312 38426 ft 463 kts 92°
2026-04-24 02:53 50.70113 25.30295 38425 ft 462 kts 92°
2026-04-24 02:54 50.68966 25.40252 38426 ft 461 kts 92°
2026-04-24 02:54 50.67810 25.50202 38424 ft 461 kts 92°
2026-04-24 02:55 50.66646 25.60144 38417 ft 461 kts 92°
2026-04-24 02:55 50.65474 25.70080 38414 ft 461 kts 92°
2026-04-24 02:56 50.64291 25.80032 38415 ft 462 kts 92°
2026-04-24 02:56 50.63106 25.89922 38416 ft 463 kts 92°
2026-04-24 02:57 50.61894 25.99968 38404 ft 465 kts 92°
2026-04-24 02:57 50.60678 26.09966 38403 ft 465 kts 92°
2026-04-24 02:58 50.59451 26.19974 38403 ft 466 kts 92°
2026-04-24 02:58 50.58212 26.30007 38388 ft 467 kts 93°
2026-04-24 02:59 50.54303 26.61214 38397 ft 470 kts 93°
2026-04-24 02:59 50.49134 27.01358 38010 ft 468 kts 93°
2026-04-24 03:00 50.46945 27.18028 35990 ft 461 kts 91°
2026-04-24 03:00 50.46498 27.22952 35308 ft 449 kts 82°
2026-04-24 03:00 50.46453 27.30391 34319 ft 443 kts 78°
2026-04-24 03:00 50.46529 27.49569 31457 ft 439 kts 77°
2026-04-24 03:01 50.46502 27.68856 27902 ft 443 kts 78°
2026-04-24 03:01 50.46393 27.84698 25961 ft 424 kts 78°
2026-04-24 03:01 50.46360 27.89271 25531 ft 417 kts 78°
2026-04-24 03:01 50.46332 27.93798 25007 ft 413 kts 78°
2026-04-24 03:02 50.46306 27.98280 24490 ft 410 kts 78°
2026-04-24 03:02 50.46284 28.02782 23972 ft 418 kts 79°
2026-04-24 03:02 50.46217 28.15140 22369 ft 426 kts 80°
2026-04-24 03:02 50.46026 28.33318 20116 ft 407 kts 80°
2026-04-24 03:03 50.45938 28.42051 19114 ft 399 kts 81°
2026-04-24 03:03 50.45896 28.46379 18610 ft 395 kts 81°
2026-04-24 03:03 50.45852 28.50685 18103 ft 393 kts 81°
2026-04-24 03:03 50.45807 28.54951 17511 ft 391 kts 81°
2026-04-24 03:04 50.45719 28.62800 16506 ft 385 kts 82°
2026-04-24 03:04 50.45640 28.70397 15601 ft 376 kts 80°
2026-04-24 03:04 50.45817 28.78470 14601 ft 367 kts 78°
2026-04-24 03:04 50.46319 28.94192 12588 ft 356 kts 79°
2026-04-24 03:05 50.46472 28.99363 11976 ft 350 kts 79°
2026-04-24 03:05 50.46577 29.03175 11491 ft 348 kts 80°
2026-04-24 03:05 50.46679 29.06955 11016 ft 346 kts 80°
2026-04-24 03:05 50.46777 29.10706 10682 ft 340 kts 81°
2026-04-24 03:06 50.46867 29.14349 10543 ft 329 kts 81°
2026-04-24 03:06 50.46954 29.17890 10419 ft 318 kts 81°
2026-04-24 03:06 50.47036 29.21290 10407 ft 305 kts 80°
2026-04-24 03:06 50.47114 29.24552 10380 ft 294 kts 80°
2026-04-24 03:07 50.47191 29.27713 10275 ft 286 kts 80°
2026-04-24 03:07 50.47267 29.30805 10101 ft 283 kts 80°
2026-04-24 03:07 50.47434 29.36965 8783 ft 302 kts 81°
2026-04-24 03:07 50.47512 29.40212 8232 ft 299 kts 82°
2026-04-24 03:08 50.47585 29.43503 7873 ft 290 kts 82°
2026-04-24 03:08 50.47865 29.56687 6622 ft 257 kts 82°
2026-04-24 03:08 50.48043 29.64501 5937 ft 258 kts 83°
2026-04-24 03:09 50.48283 29.75741 4930 ft 258 kts 83°
2026-04-24 03:09 50.48408 29.81998 4388 ft 257 kts 84°
2026-04-24 03:09 50.48454 29.84638 4199 ft 228 kts 84°
2026-04-24 03:09 50.48494 29.86985 4025 ft 203 kts 83°
2026-04-24 03:10 50.48569 29.91162 3425 ft 182 kts 83°
2026-04-24 03:10 50.48611 29.93197 3180 ft 188 kts 83°
2026-04-24 03:10 50.48653 29.95264 2946 ft 191 kts 83°
2026-04-24 03:10 50.48692 29.97306 2710 ft 180 kts 83°
2026-04-24 03:11 50.48725 29.99174 2721 ft 169 kts 83°
2026-04-24 03:11 50.48759 30.01003 2710 ft 166 kts 83°
2026-04-24 03:11 50.48794 30.02811 2716 ft 167 kts 83°
2026-04-24 03:11 50.48826 30.04597 2745 ft 160 kts 82°
2026-04-24 03:12 50.48855 30.06319 2747 ft 155 kts 82°
2026-04-24 03:12 50.48885 30.07994 2729 ft 153 kts 82°
2026-04-24 03:12 50.48915 30.09661 2724 ft 154 kts 82°
2026-04-24 03:12 50.48946 30.11334 2775 ft 151 kts 82°
2026-04-24 03:13 50.48974 30.12961 2759 ft 148 kts 82°
2026-04-24 03:13 50.49003 30.14581 2765 ft 148 kts 82°
2026-04-24 03:13 50.49031 30.16202 2759 ft 149 kts 82°
2026-04-24 03:13 50.49058 30.17828 2765 ft 149 kts 82°
2026-04-24 03:14 50.49084 30.19455 2716 ft 150 kts 82°
2026-04-24 03:14 50.49111 30.21089 2538 ft 148 kts 82°
2026-04-24 03:14 50.49138 30.22691 2376 ft 146 kts 82°
2026-04-24 03:14 50.49200 30.24283 2187 ft 144 kts 70°
2026-04-24 03:15 50.49810 30.25324 2056 ft 131 kts 10°
2026-04-24 03:15 50.50700 30.25208 2034 ft 129 kts 355°
2026-04-24 03:15 50.51589 30.25260 2012 ft 129 kts 351°
2026-04-24 03:15 50.52421 30.24813 1968 ft 130 kts 341°
2026-04-24 03:16 50.53268 30.24348 1842 ft 130 kts 340°
2026-04-24 03:16 50.54099 30.23816 1673 ft 127 kts 337°
2026-04-24 03:16 50.54888 30.23238 1489 ft 124 kts 336°
2026-04-24 03:16 50.55696 30.22647 1197 ft 131 kts 334°
2026-04-24 03:17 50.56508 30.22004 1018 ft 129 kts 333°
2026-04-24 03:17 50.57311 30.21410 860 ft 128 kts 334°
2026-04-24 03:17 50.58117 30.20799 727 ft 130 kts 332°
2026-04-24 03:17 50.58948 30.20175 559 ft 131 kts 333°
2026-04-24 03:18 50.59704 30.19611 515 ft 101 kts 334°
2026-04-24 03:18 50.60181 30.19254 516 ft 47 kts 334°
2026-04-24 03:18 50.60384 30.19111 517 ft 26 kts 352°
2026-04-24 03:18 50.60468 30.19249 518 ft 14 kts 70°
2026-04-24 03:19 50.60461 30.19397 518 ft 15 kts 142°
2026-04-24 03:19 50.60357 30.19484 518 ft 19 kts 156°
2026-04-24 03:19 50.60224 30.19587 517 ft 23 kts 153°
2026-04-24 03:19 50.60072 30.19699 517 ft 25 kts 154°
2026-04-24 03:20 50.59914 30.19824 516 ft 25 kts 152°
2026-04-24 03:20 50.59764 30.19929 516 ft 23 kts 155°
2026-04-24 03:20 50.59633 30.20039 515 ft 14 kts 133°
2026-04-24 03:20 50.59576 30.20173 515 ft 15 kts 126°
2026-04-24 03:21 50.59516 30.20301 515 ft 14 kts 133°
2026-04-24 03:21 50.59430 30.20384 515 ft 15 kts 153°
2026-04-24 03:21 50.59333 30.20460 515 ft 16 kts 154°
2026-04-24 03:21 50.59236 30.20534 515 ft 15 kts 156°
2026-04-24 03:22 50.59173 30.20625 514 ft 8 kts 88°
2026-04-24 03:22 50.59217 30.20655 514 ft 9 kts 339°
2026-04-24 03:22 50.59268 30.20602 514 ft 10 kts 321°
2026-04-24 03:22 50.59312 30.20573 515 ft 5 kts
2026-04-24 03:23 50.59333 30.20608 515 ft 3 kts 64°
2026-04-24 03:23 50.59334 30.20613 515 ft 0 kts 65°